Weather History for Aurora, NE

Change the Weather History Date:

Saturday, April 6, 2013

  Actual Average Record
Temperature  
Mean Temperature 60 °F -  
Max Temperature 72 °F 62 °F 90 °F (1972)
Min Temperature 48 °F 34 °F 17 °F (1982)
Degree Days  
Heating Degree Days 5    
Growing Degree Days 10 (Base 50)    
Moisture  
Dew Point 39 °F    
Average Humidity 51    
Maximum Humidity 84    
Minimum Humidity 26    
Precipitation  
Precipitation 0.00 in - - ()
Sea Level Pressure  
Sea Level Pressure 29.70 in    
Wind  
Wind Speed 14 mph (WNW)    
Max Wind Speed 28 mph    
Max Gust Speed 36 mph    
Visibility 10 miles    
Events      
Averages and records for this station are not official NWS values.
T = Trace of Precipitation, MM = Missing Value Source: NWS Daily Summary

Daily Weather History Graph

Daily Weather History Graph

Search for Another Location

Airport:

Trip Planner

Search our weather history database for the weather conditions in past years. The results will help you decide how hot, cold, wet, or windy it might be!

Date:

Astronomy

Apr. 06, 2013 Rise Set
Actual Time 7:06 AM CDT 8:02 PM CDT
Civil Twilight 6:38 AM CDT 8:30 PM CDT
Nautical Twilight 6:05 AM CDT 9:03 PM CDT
Astronomical Twilight 5:31 AM CDT 9:38 PM CDT
Moon 4:52 AM CDT (4/6) 4:31 PM CDT (4/6)
Length of Visible Light 13h 51m
Length of Day
12h 55m
Waning Crescent, 15% of the Moon is Illuminated
Apr 6
Waning Crescent
Apr 10
New
Apr 18
First Quarter
Apr 25
Full
May 2
Last Quarter

Hourly Weather History & Observations

Time (CDT) Temp. Dew Point Humidity Pressure Visibility Wind Dir Wind Speed Gust Speed Precip Events Conditions
12:15 AM 56.1 °F 42.8 °F 61% 29.65 in 10.0 mi South 19.6 mph 27.6 mph N/A   Clear
12:35 AM 55.6 °F 42.8 °F 62% 29.64 in 10.0 mi South 18.4 mph 25.3 mph N/A   Clear
12:55 AM 55.4 °F 43.0 °F 63% 29.63 in 10.0 mi South 18.4 mph 23.0 mph N/A   Clear
1:15 AM 54.9 °F 43.0 °F 64% 29.63 in 10.0 mi South 16.1 mph 24.2 mph N/A   Clear
1:35 AM 54.5 °F 43.0 °F 65% 29.63 in 10.0 mi South 13.8 mph 21.9 mph N/A   Clear
1:55 AM 53.6 °F 43.2 °F 68% 29.63 in 10.0 mi South 13.8 mph 23.0 mph N/A   Clear
2:15 AM 53.1 °F 43.7 °F 71% 29.63 in 10.0 mi South 13.8 mph 19.6 mph N/A   Clear
2:35 AM 52.7 °F 43.7 °F 71% 29.62 in 10.0 mi South 12.7 mph 17.3 mph N/A   Clear
2:55 AM 52.7 °F 44.1 °F 72% 29.62 in 10.0 mi South 11.5 mph 18.4 mph N/A   Clear
3:15 AM 51.4 °F 43.9 °F 75% 29.63 in 10.0 mi SSW 12.7 mph 16.1 mph N/A   Clear
3:35 AM 51.4 °F 44.1 °F 76% 29.61 in 10.0 mi South 9.2 mph 17.3 mph N/A   Clear
3:55 AM 50.9 °F 44.2 °F 78% 29.62 in 10.0 mi SSW 11.5 mph 16.1 mph N/A   Clear
4:15 AM 50.4 °F 44.1 °F 79% 29.61 in 10.0 mi South 8.1 mph - N/A   Clear
4:35 AM 49.8 °F 43.9 °F 80% 29.62 in 10.0 mi SSW 9.2 mph - N/A   Clear
4:55 AM 50.0 °F 44.1 °F 80% 29.61 in 10.0 mi SSW 9.2 mph - N/A   Clear
5:15 AM 49.5 °F 43.9 °F 81% 29.60 in 10.0 mi SSW 9.2 mph - N/A   Clear
5:35 AM 48.4 °F 43.7 °F 84% 29.60 in 10.0 mi SW 8.1 mph - N/A   Clear
5:55 AM 49.3 °F 43.9 °F 82% 29.60 in 10.0 mi West 6.9 mph - N/A   Clear
6:15 AM 50.4 °F 43.7 °F 78% 29.61 in 10.0 mi West 9.2 mph - N/A   Clear
6:35 AM 52.9 °F 41.2 °F 64% 29.64 in 10.0 mi Calm Calm - N/A   Clear
6:55 AM 52.5 °F 40.1 °F 63% 29.61 in 10.0 mi North 9.2 mph - N/A   Scattered Clouds
7:15 AM 50.7 °F 40.5 °F 68% 29.64 in 10.0 mi NW 8.1 mph - N/A   Scattered Clouds
7:35 AM 50.2 °F 40.8 °F 70% 29.63 in 10.0 mi Calm Calm - N/A   Mostly Cloudy
7:55 AM 50.4 °F 40.3 °F 68% 29.66 in 10.0 mi WNW 10.4 mph - N/A   Mostly Cloudy
8:15 AM 51.1 °F 37.9 °F 61% 29.67 in 10.0 mi NW 11.5 mph - N/A   Clear
8:35 AM 51.8 °F 37.6 °F 58% 29.69 in 10.0 mi WNW 13.8 mph 17.3 mph N/A   Mostly Cloudy
8:55 AM 52.5 °F 37.4 °F 56% 29.70 in 10.0 mi WNW 12.7 mph - N/A   Overcast
9:15 AM 53.6 °F 37.9 °F 55% 29.70 in 10.0 mi WNW 16.1 mph 20.7 mph N/A   Mostly Cloudy
9:35 AM 53.8 °F 38.5 °F 56% 29.70 in 10.0 mi WNW 15.0 mph 20.7 mph N/A   Overcast
9:55 AM 54.9 °F 40.5 °F 58% 29.70 in 10.0 mi NW 20.7 mph 26.5 mph N/A   Mostly Cloudy
10:15 AM 56.5 °F 41.7 °F 58% 29.69 in 10.0 mi NW 18.4 mph 27.6 mph N/A   Clear
10:35 AM 59.7 °F 42.6 °F 53% 29.69 in 10.0 mi NNW 25.3 mph 31.1 mph N/A   Clear
10:55 AM 61.0 °F 42.8 °F 51% 29.69 in 10.0 mi NNW 25.3 mph 33.4 mph N/A   Clear
11:15 AM 62.2 °F 43.2 °F 50% 29.70 in 10.0 mi NW 20.7 mph 29.9 mph N/A   Clear
11:35 AM 63.5 °F 42.8 °F 47% 29.70 in 10.0 mi NW 26.5 mph 34.5 mph N/A   Clear
11:55 AM 64.9 °F 42.6 °F 44% 29.71 in 10.0 mi NW 21.9 mph 32.2 mph N/A   Scattered Clouds
12:15 PM 65.3 °F 42.8 °F 44% 29.72 in 10.0 mi NW 24.2 mph 32.2 mph N/A   Mostly Cloudy
12:35 PM 63.9 °F 41.9 °F 45% 29.72 in 10.0 mi NNW 25.3 mph 34.5 mph N/A   Mostly Cloudy
12:55 PM 64.0 °F 41.7 °F 44% 29.73 in 10.0 mi NW 25.3 mph 35.7 mph N/A   Overcast
1:15 PM 65.7 °F 41.5 °F 41% 29.73 in 10.0 mi NW 25.3 mph 34.5 mph N/A   Mostly Cloudy
1:35 PM 66.0 °F 41.0 °F 40% 29.73 in 10.0 mi NNW 27.6 mph 33.4 mph N/A   Scattered Clouds
1:55 PM 67.1 °F 40.5 °F 38% 29.72 in 10.0 mi NNW 23.0 mph 31.1 mph N/A   Scattered Clouds
2:15 PM 66.2 °F 40.8 °F 40% 29.72 in 10.0 mi NNW 23.0 mph 29.9 mph N/A   Scattered Clouds
2:35 PM 67.3 °F 39.2 °F 36% 29.71 in 10.0 mi NNW 13.8 mph 29.9 mph N/A   Mostly Cloudy
2:55 PM 69.6 °F 37.9 °F 31% 29.72 in 10.0 mi North 20.7 mph 27.6 mph N/A   Scattered Clouds
3:15 PM 70.3 °F 38.7 °F 31% 29.72 in 10.0 mi NNW 18.4 mph 31.1 mph N/A   Scattered Clouds
3:35 PM 67.3 °F 38.3 °F 35% 29.72 in 10.0 mi NNW 15.0 mph 25.3 mph N/A   Mostly Cloudy
3:55 PM 68.9 °F 37.9 °F 32% 29.73 in 10.0 mi NNW 13.8 mph - N/A   Mostly Cloudy
4:15 PM 70.5 °F 37.8 °F 30% 29.73 in 10.0 mi NW 18.4 mph 23.0 mph N/A   Scattered Clouds
4:35 PM 72.9 °F 36.0 °F 26% 29.73 in 10.0 mi NW 15.0 mph 26.5 mph N/A   Mostly Cloudy
4:55 PM 71.4 °F 36.0 °F 27% 29.73 in 10.0 mi NW 18.4 mph 26.5 mph N/A   Mostly Cloudy
5:15 PM 70.5 °F 35.6 °F 28% 29.73 in 10.0 mi NNW 17.3 mph - N/A   Mostly Cloudy
5:35 PM 70.3 °F 34.5 °F 27% 29.73 in 10.0 mi NW 15.0 mph 23.0 mph N/A   Scattered Clouds
5:55 PM 71.8 °F 35.6 °F 27% 29.73 in 10.0 mi NW 16.1 mph 21.9 mph N/A   Scattered Clouds
6:15 PM 72.1 °F 35.2 °F 26% 29.74 in 10.0 mi NW 13.8 mph - N/A   Mostly Cloudy
6:35 PM 71.2 °F 35.4 °F 27% 29.75 in 10.0 mi NNW 11.5 mph - N/A   Scattered Clouds
6:55 PM 70.2 °F 34.7 °F 27% 29.75 in 10.0 mi WNW 11.5 mph 20.7 mph N/A   Scattered Clouds
7:15 PM 67.5 °F 35.1 °F 30% 29.76 in 10.0 mi NW 6.9 mph - N/A   Scattered Clouds
7:35 PM 64.4 °F 35.1 °F 34% 29.76 in 10.0 mi NW 4.6 mph - N/A   Scattered Clouds
7:55 PM 62.6 °F 34.7 °F 35% 29.76 in 10.0 mi NW 6.9 mph - N/A   Clear
8:15 PM 59.7 °F 34.2 °F 38% 29.76 in 10.0 mi NW 6.9 mph - N/A   Clear
8:35 PM 58.5 °F 34.0 °F 40% 29.76 in 10.0 mi NW 8.1 mph - N/A   Clear
8:55 PM 57.9 °F 33.8 °F 40% 29.77 in 10.0 mi NW 8.1 mph - N/A   Clear
9:15 PM 57.6 °F 33.1 °F 40% 29.77 in 10.0 mi NNW 5.8 mph - N/A   Clear
9:35 PM 56.8 °F 32.4 °F 40% 29.78 in 10.0 mi NW 6.9 mph - N/A   Clear
9:55 PM 54.3 °F 32.0 °F 43% 29.79 in 10.0 mi NW 5.8 mph - N/A   Clear
10:15 PM 55.9 °F 31.8 °F 40% 29.79 in 10.0 mi NNW 6.9 mph - N/A   Clear
10:35 PM 54.9 °F 31.6 °F 41% 29.79 in 10.0 mi NW 5.8 mph - N/A   Clear
10:55 PM 51.4 °F 32.0 °F 47% 29.80 in 10.0 mi Calm Calm - N/A   Clear
11:15 PM 52.0 °F 31.8 °F 46% 29.80 in 10.0 mi Calm Calm - N/A   Clear
11:35 PM 49.6 °F 32.0 °F 51% 29.81 in 10.0 mi Calm Calm - N/A   Clear
11:55 PM 48.6 °F 32.0 °F 53% 29.81 in 10.0 mi Calm Calm - N/A   Clear